Regional Weather Roundup
Issued by NWS

Home | Current Version | Previous Version | Text Only | Print | Product List | Glossary Off
Versions: 1 2 3 4 5 6 7 8 9 10 11 12 13 14 15 16 17 18 19 20 21 22 23 24 25 26 27 28 29 30 31 32 33 34 35 36 37 38 39 40 41 42 43 44 45 46 47 48 49 50

000
ASUS44 KMEG 282310
RWRTN
TENNESSEE HOURLY STATE WEATHER ROUNDUP
NATIONAL WEATHER SERVICE MEMPHIS TN
600 PM CDT THU AUG 28 2014

TNZ002-004-019-021-049-052-054-088>092-290000-
WEST TENNESSEE

CITY           SKY/WX    TMP DP  RH WIND       PRES   REMARKS
MEMPHIS INTL   PTSUNNY   91  64  40 SW9       29.94S HX  92
NWS MEMPHIS      N/A     92 N/A N/A MISG        N/A
JACKSON        SUNNY     89  68  49 CALM      29.95S HX  93
DYERSBURG      MOSUNNY   88  66  48 NW5       29.96R HX  90
UNION CITY     MOSUNNY   81  73  78 NE8       29.97R
PARIS          SUNNY     84  72  65 N9        29.98R
HUNTINGDON     SUNNY     90  70  51 SW3       29.96R HX  95
LEXINGTON      SUNNY     91  66  43 S6        29.95S HX  94
SAVANNAH       SUNNY     90  70  51 S3        29.96S HX  95
$$

TNZ008-025-027-028-033-062-065-066-290000-
NORTH MIDDLE TENNESSEE

CITY           SKY/WX    TMP DP  RH WIND       PRES   REMARKS
NASHVILLE      PTSUNNY   89  71  55 NE8       29.97R HX  95
DICKSON        SUNNY     82  73  74 NW3       29.99R
PORTLAND       MOSUNNY   82  73  74 N9        30.00R
CLARKSVILLE    PTSUNNY   79  74  84 N6        29.98S
LEBANON        MOSUNNY   89  73  59 NE7       29.97R HX  96
SMYRNA         SUNNY     93  69  45 E7        29.97R HX  98
MURFREESBORO   SUNNY     91  68  46 SE5       29.96R HX  95
COOKEVILLE     MOSUNNY   81  75  83 SE3       30.01F
GALLATIN       SUNNY     90  74  59 E6        29.99R HX  99
CROSSVILLE     MOSUNNY   75  68  78 CALM      30.06R
$$

TNZ061-075-076-078-094-096-097-290000-
SOUTH MIDDLE TENNESSEE

CITY           SKY/WX    TMP DP  RH WIND       PRES   REMARKS
LEWISBURG      SUNNY     90  68  48 SE6       29.97R HX  94
FAYETTEVILLE   MOSUNNY   86  66  51 S6        29.99S
TULLAHOMA      SUNNY     88  66  48 SE5       30.01R HX  90
WINCHESTER     SUNNY     88  70  55 S7        30.00R HX  92
MCMINNVILLE    PTSUNNY   86  75  70 NE7       30.01R HX  95
COLUMBIA         N/A     91  72  52 E3        29.96R VSB 3/4 HX  98
SHELBYVILLE    SUNNY     91  72  52 SW6       29.99R HX  98
$$

TNZ017-018-042-046-047-290000-
NORTHEAST TENNESSEE

CITY           SKY/WX    TMP DP  RH WIND       PRES   REMARKS
TRI CITIES     MOSUNNY   85  67  54 N6        30.04S
ELIZABETHTON   CLEAR     82  66  57 CALM      30.04S
$$

TNZ012-013-036-069-073-074-290000-
CENTRAL EAST TENNESSEE

CITY           SKY/WX    TMP DP  RH WIND       PRES   REMARKS
KNOXVILLE      MOSUNNY   87  67  51 E6        29.98  HX  90
OAK RIDGE      SUNNY     90  67  46 E3        30.00F HX  93
GATLINBURG     PTCLDY    88  68  51 CALM      29.99S HX  91
MORRISTOWN     CLEAR     84  68  58 N5        30.02S
$$

TNZ083-085-099-290000-
SOUTHEAST TENNESSEE

CITY           SKY/WX    TMP DP  RH WIND       PRES   REMARKS
CHATTANOOGA    MOSUNNY   91  63  39 SE5       29.98S HX  92
$$

SKY/WX REPORTED AS FAIR MEANS FEW OR NO CLOUDS BELOW
12 THOUSAND FEET.



USA.gov is the U.S. government's official web portal to all federal, state and local government web resources and services.